Time,TemperatureF,DewpointF,PressureIn,WindDirection,WindDirectionDegrees,WindSpeedMPH,WindSpeedGustMPH,Humidity,HourlyPrecipIn,Conditions,Clouds,dailyrainin,SolarRadiationWatts/m^2,SoftwareType,DateUTC
2013-10-10 00:03:00,32.0,27.0,-100.00,ESE,115,4.0,6.0,82,0.00,,,0.00,0.000000,,2013-10-10 06:03:00,
2013-10-10 00:13:00,32.0,27.0,-100.00,ESE,115,4.0,6.0,82,0.00,,,0.00,0.000000,,2013-10-10 06:13:00,
2013-10-10 00:43:00,31.0,26.0,-100.00,East,81,1.0,5.0,81,0.00,,,0.00,0.000000,,2013-10-10 06:43:00,
2013-10-10 00:53:00,31.0,26.0,-100.00,East,81,1.0,5.0,81,0.00,,,0.00,0.000000,,2013-10-10 06:53:00,
2013-10-10 01:02:00,31.0,26.0,-100.00,East,81,1.0,5.0,81,0.00,,,0.00,0.000000,,2013-10-10 07:02:00,
2013-10-10 01:11:00,31.0,26.0,-100.00,East,81,1.0,5.0,81,0.00,,,0.00,0.000000,,2013-10-10 07:11:00,
2013-10-10 01:42:00,29.0,25.0,-100.00,ENE,68,2.0,4.0,84,0.00,,,0.00,0.000000,,2013-10-10 07:42:00,
2013-10-10 01:52:00,29.0,25.0,-100.00,ENE,68,2.0,4.0,84,0.00,,,0.00,0.000000,,2013-10-10 07:52:00,
2013-10-10 02:02:00,29.0,25.0,-100.00,ENE,68,2.0,4.0,84,0.00,,,0.00,0.000000,,2013-10-10 08:02:00,
2013-10-10 02:11:00,29.0,25.0,-100.00,ENE,68,2.0,4.0,84,0.00,,,0.00,0.000000,,2013-10-10 08:11:00,
2013-10-10 02:43:00,28.0,24.0,-100.00,ESE,116,2.0,6.0,85,0.00,,,0.00,0.000000,,2013-10-10 08:43:00,
2013-10-10 02:52:00,28.0,24.0,-100.00,ESE,116,2.0,6.0,85,0.00,,,0.00,0.000000,,2013-10-10 08:52:00,
2013-10-10 03:02:00,28.0,24.0,-100.00,ESE,116,2.0,6.0,85,0.00,,,0.00,0.000000,,2013-10-10 09:02:00,
2013-10-10 03:11:00,28.0,24.0,-100.00,ESE,116,2.0,6.0,85,0.00,,,0.00,0.000000,,2013-10-10 09:11:00,
2013-10-10 03:43:00,28.0,24.0,-100.00,NNE,15,1.0,5.0,86,0.00,,,0.00,0.000000,,2013-10-10 09:43:00,
2013-10-10 03:53:00,28.0,24.0,-100.00,NNE,15,1.0,5.0,86,0.00,,,0.00,0.000000,,2013-10-10 09:53:00,
2013-10-10 04:03:00,28.0,24.0,-100.00,NNE,15,1.0,5.0,86,0.00,,,0.00,0.000000,,2013-10-10 10:03:00,
2013-10-10 04:12:00,28.0,24.0,-100.00,NNE,15,1.0,5.0,86,0.00,,,0.00,0.000000,,2013-10-10 10:12:00,
2013-10-10 04:43:00,25.0,22.0,-100.00,ENE,78,0.0,5.0,89,0.00,,,0.00,0.000000,,2013-10-10 10:43:00,
2013-10-10 04:53:00,25.0,22.0,-100.00,ENE,78,0.0,5.0,89,0.00,,,0.00,0.000000,,2013-10-10 10:53:00,
2013-10-10 05:02:00,25.0,22.0,-100.00,ENE,78,0.0,5.0,89,0.00,,,0.00,0.000000,,2013-10-10 11:02:00,
2013-10-10 05:12:00,25.0,22.0,-100.00,ENE,78,0.0,5.0,89,0.00,,,0.00,0.000000,,2013-10-10 11:12:00,
2013-10-10 08:42:00,26.0,24.0,-100.00,NE,56,1.0,5.0,92,-99.99,,,0.00,13.000000,,2013-10-10 14:42:00,
2013-10-10 08:52:00,26.0,24.0,-100.00,NE,56,1.0,5.0,92,-99.99,,,0.00,13.000000,,2013-10-10 14:52:00,
2013-10-10 09:02:00,26.0,24.0,-100.00,NE,56,1.0,5.0,92,-99.99,,,0.00,13.000000,,2013-10-10 15:02:00,
2013-10-10 09:11:00,26.0,24.0,-100.00,NE,56,1.0,5.0,92,-99.99,,,0.00,13.000000,,2013-10-10 15:11:00,
2013-10-10 09:43:00,29.0,26.0,-100.00,SSW,195,1.0,5.0,90,0.00,,,0.00,124.000000,,2013-10-10 15:43:00,
2013-10-10 09:54:00,29.0,26.0,-100.00,SSW,195,1.0,5.0,90,0.00,,,0.00,124.000000,,2013-10-10 15:54:00,
2013-10-10 10:03:00,29.0,26.0,-100.00,SSW,195,1.0,5.0,90,0.00,,,0.00,124.000000,,2013-10-10 16:03:00,
2013-10-10 10:13:00,29.0,26.0,-100.00,SSW,195,1.0,5.0,90,0.00,,,0.00,124.000000,,2013-10-10 16:13:00,
2013-10-10 10:42:00,36.0,31.0,-100.00,NW,316,3.0,5.0,83,0.00,,,0.00,277.000000,,2013-10-10 16:42:00,
2013-10-10 10:53:00,36.0,31.0,-100.00,NW,316,3.0,5.0,83,0.00,,,0.00,277.000000,,2013-10-10 16:53:00,
2013-10-10 11:02:00,36.0,31.0,-100.00,NW,316,3.0,5.0,83,0.00,,,0.00,277.000000,,2013-10-10 17:02:00,
2013-10-10 11:12:00,36.0,31.0,-100.00,NW,316,3.0,5.0,83,0.00,,,0.00,277.000000,,2013-10-10 17:12:00,
2013-10-10 11:52:00,40.0,32.0,-100.00,SSW,206,2.0,5.0,73,0.00,,,0.00,417.000000,,2013-10-10 17:52:00,
2013-10-10 12:02:00,40.0,32.0,-100.00,SSW,206,2.0,5.0,73,0.00,,,0.00,417.000000,,2013-10-10 18:02:00,
2013-10-10 12:11:00,40.0,32.0,-100.00,SSW,206,2.0,5.0,73,0.00,,,0.00,417.000000,,2013-10-10 18:11:00,
2013-10-10 12:42:00,45.0,32.0,-100.00,West,268,3.0,6.0,61,0.00,,,0.00,534.000000,,2013-10-10 18:42:00,
2013-10-10 12:52:00,45.0,32.0,-100.00,West,268,3.0,6.0,61,0.00,,,0.00,534.000000,,2013-10-10 18:52:00,
2013-10-10 13:01:00,45.0,32.0,-100.00,West,268,3.0,6.0,61,0.00,,,0.00,534.000000,,2013-10-10 19:01:00,
2013-10-10 13:11:00,45.0,32.0,-100.00,West,268,3.0,6.0,61,0.00,,,0.00,534.000000,,2013-10-10 19:11:00,
2013-10-10 13:42:00,48.0,32.0,-100.00,North,356,3.0,7.0,54,0.00,,,0.00,610.000000,,2013-10-10 19:42:00,
2013-10-10 13:53:00,48.0,32.0,-100.00,North,356,3.0,7.0,54,0.00,,,0.00,610.000000,,2013-10-10 19:53:00,
2013-10-10 14:02:00,48.0,32.0,-100.00,North,356,3.0,7.0,54,0.00,,,0.00,610.000000,,2013-10-10 20:02:00,
2013-10-10 14:12:00,48.0,32.0,-100.00,North,356,3.0,7.0,54,0.00,,,0.00,610.000000,,2013-10-10 20:12:00,
2013-10-10 14:42:00,50.0,31.0,-100.00,NNE,30,3.0,7.0,48,0.00,,,0.00,626.000000,,2013-10-10 20:42:00,
2013-10-10 14:52:00,50.0,31.0,-100.00,NNE,30,3.0,7.0,48,0.00,,,0.00,626.000000,,2013-10-10 20:52:00,
2013-10-10 15:03:00,50.0,31.0,-100.00,NNE,30,3.0,7.0,48,0.00,,,0.00,626.000000,,2013-10-10 21:03:00,
2013-10-10 15:11:00,50.0,31.0,-100.00,NNE,30,3.0,7.0,48,0.00,,,0.00,626.000000,,2013-10-10 21:11:00,
2013-10-10 15:44:00,50.0,29.0,-100.00,NNW,337,4.0,9.0,44,0.00,,,0.00,406.000000,,2013-10-10 21:44:00,
2013-10-10 15:54:00,50.0,29.0,-100.00,NNW,337,4.0,9.0,44,0.00,,,0.00,406.000000,,2013-10-10 21:54:00,
2013-10-10 16:04:00,50.0,29.0,-100.00,NNW,337,4.0,9.0,44,0.00,,,0.00,406.000000,,2013-10-10 22:04:00,
2013-10-10 16:13:00,50.0,29.0,-100.00,NNW,337,4.0,9.0,44,0.00,,,0.00,406.000000,,2013-10-10 22:13:00,
2013-10-10 16:43:00,47.0,27.0,-100.00,NNW,340,7.0,11.0,45,0.00,,,0.00,222.000000,,2013-10-10 22:43:00,
2013-10-10 16:53:00,47.0,27.0,-100.00,NNW,340,7.0,11.0,45,0.00,,,0.00,222.000000,,2013-10-10 22:53:00,
2013-10-10 17:03:00,47.0,27.0,-100.00,NNW,340,7.0,11.0,45,0.00,,,0.00,222.000000,,2013-10-10 23:03:00,
2013-10-10 17:12:00,47.0,27.0,-100.00,NNW,340,7.0,11.0,45,0.00,,,0.00,222.000000,,2013-10-10 23:12:00,
2013-10-10 17:43:00,45.0,26.0,-100.00,NW,310,5.0,13.0,47,0.00,,,0.00,153.000000,,2013-10-10 23:43:00,
2013-10-10 17:52:00,45.0,26.0,-100.00,NW,310,5.0,13.0,47,0.00,,,0.00,153.000000,,2013-10-10 23:52:00,
2013-10-10 18:02:00,45.0,26.0,-100.00,NW,310,5.0,13.0,47,0.00,,,0.00,153.000000,,2013-10-11 00:02:00,
2013-10-10 18:11:00,45.0,26.0,-100.00,NW,310,5.0,13.0,47,0.00,,,0.00,153.000000,,2013-10-11 00:11:00,
2013-10-10 18:42:00,44.0,23.0,-100.00,NNW,338,2.0,14.0,43,0.00,,,0.00,78.000000,,2013-10-11 00:42:00,
2013-10-10 18:52:00,44.0,23.0,-100.00,NNW,338,2.0,14.0,43,0.00,,,0.00,78.000000,,2013-10-11 00:52:00,
2013-10-10 19:01:00,44.0,23.0,-100.00,NNW,338,2.0,14.0,43,0.00,,,0.00,78.000000,,2013-10-11 01:01:00,
2013-10-10 19:11:00,44.0,23.0,-100.00,NNW,338,2.0,14.0,43,0.00,,,0.00,78.000000,,2013-10-11 01:11:00,
2013-10-10 19:42:00,43.0,25.0,-100.00,NNW,346,3.0,4.0,48,0.00,,,0.00,11.000000,,2013-10-11 01:42:00,
2013-10-10 19:52:00,43.0,25.0,-100.00,NNW,346,3.0,4.0,48,0.00,,,0.00,11.000000,,2013-10-11 01:52:00,
2013-10-10 20:02:00,43.0,25.0,-100.00,NNW,346,3.0,4.0,48,0.00,,,0.00,11.000000,,2013-10-11 02:02:00,
2013-10-10 20:12:00,43.0,25.0,-100.00,NNW,346,3.0,4.0,48,0.00,,,0.00,11.000000,,2013-10-11 02:12:00,
2013-10-10 20:42:00,42.0,27.0,-100.00,WNW,302,4.0,8.0,55,0.00,,,0.00,0.000000,,2013-10-11 02:42:00,
2013-10-10 20:52:00,42.0,27.0,-100.00,WNW,302,4.0,8.0,55,0.00,,,0.00,0.000000,,2013-10-11 02:52:00,
2013-10-10 21:02:00,42.0,27.0,-100.00,WNW,302,4.0,8.0,55,0.00,,,0.00,0.000000,,2013-10-11 03:02:00,
2013-10-10 21:11:00,42.0,27.0,-100.00,WNW,302,4.0,8.0,55,0.00,,,0.00,0.000000,,2013-10-11 03:11:00,
2013-10-10 21:45:00,41.0,27.0,-100.00,ENE,78,3.0,7.0,58,0.00,,,0.00,0.000000,,2013-10-11 03:45:00,
2013-10-10 21:54:00,41.0,27.0,-100.00,ENE,78,3.0,7.0,58,0.00,,,0.00,0.000000,,2013-10-11 03:54:00,
2013-10-10 22:04:00,41.0,27.0,-100.00,ENE,78,3.0,7.0,58,0.00,,,0.00,0.000000,,2013-10-11 04:04:00,
2013-10-10 22:13:00,41.0,27.0,-100.00,ENE,78,3.0,7.0,58,0.00,,,0.00,0.000000,,2013-10-11 04:13:00,
2013-10-10 22:44:00,39.0,28.0,-100.00,SSW,208,1.0,3.0,65,0.00,,,0.00,0.000000,,2013-10-11 04:44:00,
2013-10-10 22:53:00,39.0,28.0,-100.00,SSW,208,1.0,3.0,65,0.00,,,0.00,0.000000,,2013-10-11 04:53:00,
2013-10-10 23:03:00,39.0,28.0,-100.00,SSW,208,1.0,3.0,65,0.00,,,0.00,0.000000,,2013-10-11 05:03:00,
2013-10-10 23:13:00,39.0,28.0,-100.00,SSW,208,1.0,3.0,65,0.00,,,0.00,0.000000,,2013-10-11 05:13:00,
2013-10-10 23:43:00,39.0,29.0,-100.00,SE,134,3.0,5.0,67,0.00,,,0.00,0.000000,,2013-10-11 05:43:00,
2013-10-10 23:52:00,39.0,29.0,-100.00,SE,134,3.0,5.0,67,0.00,,,0.00,0.000000,,2013-10-11 05:52:00,